Starlink 1502

operational
NORAD ID: 45764 Int'l Des: 2020-038 Owner: SPXS Country: US Constellation: starlink
LEOCIRCULARSTARLINK_TYPE

About Starlink 1502

Description loading...

Live Position

Loading 3D Globe...

Upcoming Passes

Altitude History

Altitude vs Time

uPlot chart will show altitude changes over time

Two-Line Element Set

1 45764U 20038AL 25352.34613530 .00001046 00000-0 89087-4 0 9998
2 45764 53.0534 221.7837 0001485 91.1117 269.0042 15.06397877304223
Epoch: Dec 18, 2025 • Age: 17 hours

Current Status

Altitude 564.8 km
Velocity 7.58 km/s
Sub-Earth Point -48.36°S, 50.6°E
Launch Date Jun 13, 2020
Age 5.5 years
Type internet

Technical Details

Classification Payload
Mass 260.00 kg
Dry Mass 248.00 kg
Total Mass 260.00 kg
Length 0.20 m
Diameter 2.80 m
Span 9.00 m
Shape Box + pan
Manufacturer SPXS
Bus Type Starlink
Phase Status In Orbit
Owner/State SPXS/US

Large Constellations

Loading constellations...